Vienna, OH

8:49 AM EST on February 13, 2016 (GMT -0500)
Youngstown-Warren Regional

Weather History for KYNG - January, 2013

Change the Weather History Date:

Friday, January 18, 2013

  Actual Average Record
Temperature  
Mean Temperature 25 °F 26 °F  
Max Temperature 33 °F 32 °F 61 °F (1996)
Min Temperature 16 °F 19 °F -18 °F (1994)
Degree Days  
Heating Degree Days 40 40  
Month to date heating degree days 590 707  
Since 1 July heating degree days 2853 3113  
Cooling Degree Days 0 0  
Month to date cooling degree days 0 0  
Year to date cooling degree days 0 0  
Moisture  
Dew Point 13 °F    
Average Humidity 63    
Maximum Humidity 81    
Minimum Humidity 45    
Precipitation  
Precipitation 0.02 in 0.09 in 0.87 in (1974)
Month to date precipitation 0.70 1.55  
Year to date precipitation 0.70 1.55  
Snow  
Snow 0.30 in 0.60 in - ()
Month to date snowfall 1.4 9.8  
Since 1 July snowfall 28.6 29.2  
Snow Depth 1.00 in    
Sea Level Pressure  
Sea Level Pressure 30.35 in    
Wind  
Wind Speed 11 mph (WSW)    
Max Wind Speed 25 mph    
Max Gust Speed 31 mph    
Visibility 9 miles    
Events Snow    
T = Trace of Precipitation, MM = Missing Value Source: NWS Daily Summary

Daily Weather History Graph

Daily Weather History Graph

Search for Another Location

Airport or City:

Trip Planner

Search our weather history database for the weather conditions in past years. The results will help you decide how hot, cold, wet, or windy it might be!

Date:

Astronomy

Jan. 18, 2013 Rise Set
Actual Time 7:44 AM EST 5:22 PM EST
Civil Twilight 7:14 AM EST 5:52 PM EST
Nautical Twilight 6:40 AM EST 6:26 PM EST
Astronomical Twilight 6:07 AM EST 6:59 PM EST
Moon 11:17 AM EST (1/18) 12:15 AM EST (1/18)
Length of Visible Light 10h 38m
Length of Day
9h 37m
Waxing Crescent, 47% of the Moon is Illuminated
Jan 18
Waxing Crescent
Jan 18
First Quarter
Jan 26
Full
Feb 3
Last Quarter
Feb 10
New

Hourly Weather History & Observations

Time (EST) Temp. Windchill Dew Point Humidity Pressure Visibility Wind Dir Wind Speed Gust Speed Precip Events Conditions
12:14 AM 24.8 °F 10.7 °F 19.4 °F 80% 30.17 in 2.0 mi NNW 19.6 mph 31.1 mph 0.00 in Snow Light Snow
12:33 AM 24.8 °F 9.6 °F 17.6 °F 74% 30.18 in 5.0 mi NW 23.0 mph 29.9 mph 0.00 in Snow Light Snow
12:51 AM 24.1 °F 12.0 °F 16.0 °F 71% 30.25 in 5.0 mi NW 13.8 mph 26.5 mph N/A Snow Light Snow
1:51 AM 21.2 °F 6.8 °F 14.0 °F 74% 30.26 in 3.0 mi NW 17.3 mph 27.6 mph N/A Snow Light Snow
2:51 AM 19.9 °F 5.2 °F 9.0 °F 62% 30.36 in 10.0 mi NW 17.3 mph 21.9 mph 0.00 in Snow Light Snow
3:51 AM 19.0 °F 6.8 °F 8.1 °F 62% 30.38 in 9.0 mi WNW 11.5 mph 20.7 mph N/A Snow Light Snow
4:36 AM 19.4 °F 5.0 °F 6.8 °F 58% 30.35 in 10.0 mi NNW 16.1 mph - 0.00 in Snow Light Snow
4:51 AM 19.0 °F 5.6 °F 7.0 °F 59% 30.41 in 10.0 mi NW 13.8 mph - 0.00 in Snow Light Snow
5:51 AM 18.0 °F 11.1 °F 8.1 °F 65% 30.43 in 9.0 mi WNW 4.6 mph - 0.00 in Snow Light Snow
6:51 AM 16.0 °F 10.4 °F 9.0 °F 74% 30.45 in 9.0 mi NNW 3.5 mph - N/A Snow Light Snow
7:51 AM 16.0 °F 10.4 °F 10.9 °F 81% 30.46 in 10.0 mi SSE 3.5 mph - 0.00 in   Overcast
8:51 AM 18.0 °F 12.7 °F 10.9 °F 74% 30.48 in 10.0 mi SSW 3.5 mph - N/A   Overcast
9:51 AM 21.0 °F 12.4 °F 12.0 °F 68% 30.49 in 10.0 mi SW 6.9 mph - N/A   Mostly Cloudy
10:42 AM 24.8 °F 15.3 °F 12.2 °F 59% 30.43 in 10.0 mi SW 9.2 mph - N/A   Mostly Cloudy
10:51 AM 24.1 °F 14.4 °F 10.9 °F 57% 30.48 in 10.0 mi SW 9.2 mph 16.1 mph N/A   Mostly Cloudy
11:21 AM 26.6 °F 16.2 °F 12.2 °F 55% 30.42 in 10.0 mi SW 11.5 mph 19.6 mph N/A   Mostly Cloudy
11:51 AM 25.0 °F 19.3 °F 12.0 °F 58% 30.45 in 10.0 mi SW 4.6 mph - N/A   Mostly Cloudy
12:51 PM 28.9 °F 18.6 °F 12.0 °F 49% 30.43 in 10.0 mi WSW 12.7 mph 18.4 mph N/A   Scattered Clouds
1:51 PM 28.9 °F 18.6 °F 12.9 °F 51% 30.40 in 10.0 mi South 12.7 mph - N/A   Scattered Clouds
2:51 PM 30.0 °F 20.0 °F 12.9 °F 49% 30.38 in 10.0 mi SW 12.7 mph 18.4 mph N/A   Scattered Clouds
3:51 PM 30.9 °F 22.8 °F 14.0 °F 50% 30.35 in 10.0 mi SSW 9.2 mph - N/A   Mostly Cloudy
4:51 PM 30.2 °F 20.2 °F 12.2 °F 47% 30.27 in 10.0 mi South 12.7 mph 19.6 mph N/A   Mostly Cloudy
5:51 PM 28.9 °F 20.4 °F 12.9 °F 51% 30.31 in 10.0 mi SSW 9.2 mph 21.9 mph N/A   Mostly Cloudy
6:51 PM 28.0 °F 18.1 °F 16.0 °F 61% 30.30 in 10.0 mi South 11.5 mph 21.9 mph N/A   Mostly Cloudy
7:51 PM 28.0 °F 17.5 °F 16.0 °F 61% 30.29 in 10.0 mi South 12.7 mph 23.0 mph N/A   Scattered Clouds
8:51 PM 28.9 °F 18.2 °F 14.0 °F 54% 30.26 in 10.0 mi South 13.8 mph 20.7 mph N/A   Partly Cloudy
9:51 PM 30.0 °F 19.5 °F 12.9 °F 49% 30.22 in 10.0 mi SSW 13.8 mph 25.3 mph N/A   Scattered Clouds
10:51 PM 32.0 °F 21.6 °F 14.0 °F 48% 30.19 in 10.0 mi SSW 15.0 mph 21.9 mph N/A   Mostly Cloudy
11:51 PM 33.1 °F 23.0 °F 15.1 °F 48% 30.17 in 10.0 mi SSW 15.0 mph 25.3 mph N/A   Overcast